Stations météo

Publicité
Solenzara, France (7765): Température de l'air & dewpoint: 04.12.2018 17:00:00 - 10.12.2018 17:00:00 (CET)Solenzara, France (7765): Température de l'air 5cm: 04.12.2018 17:00:00 - 10.12.2018 17:00:00 (CET)Solenzara, France (7765): Température de l'air -20cm: 04.12.2018 17:00:00 - 10.12.2018 17:00:00 (CET)Solenzara, France (7765): Vitesse du vent & gusts: 04.12.2018 17:00:00 - 10.12.2018 17:00:00 (CET)Solenzara, France (7765): Direction du vent: 04.12.2018 17:00:00 - 10.12.2018 17:00:00 (CET)Solenzara, France (7765): reduced air pressure: 04.12.2018 17:00:00 - 10.12.2018 17:00:00 (CET)Solenzara, France (7765): visibility: 04.12.2018 17:00:00 - 10.12.2018 17:00:00 (CET)Solenzara, France (7765): Ensoleillement: 04.12.2018 17:00:00 - 10.12.2018 17:00:00 (CET)Solenzara, France (7765): Quantités de précipitations: 04.12.2018 17:00:00 - 10.12.2018 17:00:00 (CET)
Date & Time tt [°C] td [°C] tt 5cm [°C] tt -20cm [°C] ff [km/h] ff [knt] fx [km/h] fx [knt] dd ppp [hPa] vv [km] sd [min] rr [mm]
10.12.2018 17:00:00 12,9 3,8 10,5 13,9 10 6 25 14 W 1017,9 60 1 0,0
10.12.2018 16:00:00 16,4 0,5 13,6 13,8 15 8 33 18 N 1017,6 57 60 0,0
10.12.2018 15:00:00 17,1 -0,2 15,3 13,8 20 11 36 19 N 1017,2 47 56 0,0
10.12.2018 14:00:00 18,7 0,8 19,9 13,6 23 12 39 21 N 1016,8 46 60 0,0
10.12.2018 13:00:00 18,7 0,8 20,0 13,5 26 14 38 20 N 1016,8 51 60 0,0
10.12.2018 12:00:00 19,1 2,4 20,0 13,5 13 7 19 11 N 1016,8 50 60 0,0
10.12.2018 11:00:00 17,4 4,7 18,3 13,4 11 6 29 15 NE 1017,3 51 60 0,0
10.12.2018 10:00:00 17,3 1,7 17,1 13,5 14 8 32 18 WNW 1016,5 44 60 0,0
10.12.2018 09:00:00 15,9 1,6 13,6 13,5 15 8 44 24 W 1015,7 50 60 0,0
10.12.2018 08:00:00 15,2 1,0 13,1 13,5 20 11 45 24 W 1015,0 60 12 0,0
10.12.2018 07:00:00 15,4 0,4 13,4 13,6 27 15 63 34 W 1014,3 60 0 0,0
10.12.2018 06:00:00 14,8 2,0 13,4 13,6 32 17 71 39 W 1013,8 60 0 0,0
10.12.2018 05:00:00 15,4 1,1 13,9 13,6 35 19 71 38 W 1013,4 60 0 0,0
10.12.2018 04:00:00 15,5 1,6 13,9 13,6 39 21 71 39 W 1013,9 60 0 0,0
10.12.2018 03:00:00 15,6 2,0 13,9 13,7 31 17 67 36 W 1013,4 60 0 0,0
10.12.2018 02:00:00 15,7 2,1 14,2 13,7 36 20 83 45 W 1013,2 60 0 0,0
10.12.2018 01:00:00 16,1 0,6 14,3 13,7 34 18 79 42 WNW 1012,7 60 0 0,0
10.12.2018 00:00:00 15,8 1,9 13,8 13,8 42 23 81 44 WNW 1013,6 60 0 0,0
09.12.2018 23:00:00 15,4 2,2 13,9 13,8 26 14 79 43 W 1012,6 60 0 0,0
09.12.2018 22:00:00 16,1 1,8 14,7 13,8 35 19 82 44 W 1012,1 60 0 0,0
09.12.2018 21:00:00 16,5 1,0 14,8 13,8 36 19 84 45 WNW 1011,5 60 0 0,0
09.12.2018 20:00:00 17,3 1,3 14,2 13,8 30 16 80 43 NW 1013,3 60 0 0,0
09.12.2018 19:00:00 16,7 4,4 13,9 13,7 22 12 66 36 NNW 1012,7 60 0 0,0
09.12.2018 18:00:00 16,7 5,3 14,5 13,7 25 14 72 39 NW 1011,9 60 0 0,0
09.12.2018 17:00:00 17,5 5,1 15,7 13,6 35 19 98 53 NW 1010,9 60 0 0,0
09.12.2018 16:00:00 18,2 3,6 17,4 13,5 53 29 123 66 W 1008,1 6 55 0,0
09.12.2018 15:00:00 19,7 0,7 19,2 13,4 61 33 124 67 W 1007,3 7 60 0,0
09.12.2018 14:00:00 20,2 2,1 20,5 13,4 56 30 119 64 W 1006,5 11 60 0,0
09.12.2018 13:00:00 20,4 2,7 19,5 13,3 58 32 136 73 W 1006,8 20 42 0,0
09.12.2018 12:00:00 21,1 1,4 18,8 13,2 48 26 96 52 W 1007,8 19 28 0,0
09.12.2018 11:00:00 21,1 1,4 17,2 13,2 18 10 50 27 NNW 1010,3 45 22 0,0
09.12.2018 10:00:00 20,0 3,6 16,1 13,2 16 9 41 22 WNW 1011,8 57 0 0,0
09.12.2018 09:00:00 19,1 3,7 16,2 13,2 14 8 63 34 WNW 1012,7 59 14 0,0
09.12.2018 08:00:00 18,8 3,8 14,2 13,2 31 17 61 33 W 1013,1 60 0 0,0
09.12.2018 07:00:00 17,9 5,1 15,4 13,2 18 10 45 25 NW 1014,0 60 0 0,0
09.12.2018 06:00:00 18,0 6,2 14,7 13,2 21 11 51 27 WNW 1014,8 60 0 0,0
09.12.2018 05:00:00 17,4 6,0 14,6 13,3 14 8 49 26 WNW 1014,7 60 0 0,0
09.12.2018 04:00:00 17,9 5,8 15,1 13,4 21 12 59 32 W 1014,9 60 0 0,0
09.12.2018 03:00:00 16,6 5,2 7,6 13,5 29 16 63 34 W 1015,3 60 0 0,0
09.12.2018 02:00:00 10,9 2,5 3,3 13,6 5 3 19 11 W 1015,9 60 0 0,0
09.12.2018 01:00:00 8,4 2,4 3,6 13,7 8 4 15 8 NNW 1016,6 60 0 0,0
09.12.2018 00:00:00 9,1 0,3 5,8 13,9 8 4 20 11 SSW 1017,5 60 0 0,0
08.12.2018 23:00:00 9,5 0,4 4,7 13,9 8 5 19 11 W 1017,9 60 0 0,0
08.12.2018 22:00:00 9,5 0,9 6,7 14,1 8 5 19 10 WNW 1018,3 60 0 0,0
08.12.2018 21:00:00 10,3 0,9 7,6 14,1 11 6 20 11 W 1018,1 60 0 0,0
08.12.2018 20:00:00 10,4 1,5 7,6 14,2 8 4 18 10 NW 1018,1 60 0 0,0
08.12.2018 19:00:00 12,0 1,3 9,4 14,2 9 5 19 10 W 1017,9 60 0 0,0
08.12.2018 18:00:00 13,6 1,6 8,9 14,2 7 4 32 17 W 1017,8 60 0 0,0
08.12.2018 17:00:00 14,6 1,8 12,9 14,1 15 8 31 17 W 1016,7 8 12 0,0
08.12.2018 16:00:00 15,8 1,9 14,5 14,0 16 8 27 14 W 1016,2 57 60 0,0
08.12.2018 15:00:00 17,6 3,1 17,1 13,9 10 6 27 15 W 1015,4 46 60 0,0
08.12.2018 14:00:00 18,2 2,5 23,7 13,7 7 4 16 8 SW 1015,5 47 60 0,0
08.12.2018 13:00:00 18,0 5,6 22,1 13,6 5 3 20 11 SSE 1015,8 48 60 0,0
08.12.2018 12:00:00 17,7 6,2 22,3 13,5 14 8 26 14 S 1015,6 59 60 0,0
08.12.2018 11:00:00 17,9 3,4 18,3 13,5 5 3 18 10 W 1015,6 45 60 0,0
08.12.2018 10:00:00 18,9 2,3 14,6 13,6 3 2 41 22 NW 1014,8 58 60 0,0
08.12.2018 09:00:00 14,9 1,7 13,1 13,6 23 12 67 36 W 1014,5 17 60 0,0
08.12.2018 08:00:00 14,6 0,4 12,2 13,6 23 12 42 23 W 1013,9 55 10 0,0
08.12.2018 07:00:00 15,5 -0,7 13,2 13,7 22 12 48 26 WNW 1012,6 60 0 0,0
08.12.2018 06:00:00 16,1 1,0 12,9 13,7 13 7 51 28 WNW 1011,9 60 0 0,0
08.12.2018 05:00:00 17,2 1,6 13,3 13,7 23 12 64 34 W 1010,8 60 0 0,0
08.12.2018 04:00:00 18,1 4,3 13,1 13,7 17 9 46 25 WSW 1011,2 60 0 0,0
08.12.2018 03:00:00 17,5 5,7 13,2 13,8 12 6 29 15 N 1012,0 60 0 0,0
08.12.2018 02:00:00 16,7 7,1 12,3 13,8 8 4 54 29 SSE 1012,9 60 0 0,0
08.12.2018 01:00:00 17,0 7,3 10,1 13,9 20 11 44 24 W 1014,5 60 0 0,0
08.12.2018 00:00:00 12,8 10,2 8,4 13,9 4 2 15 8 NE 1015,5 43 0 0,0
07.12.2018 23:00:00 11,7 8,7 7,6 14,0 6 4 25 13 N 1016,0 50 0 0,0
07.12.2018 22:00:00 11,8 10,2 7,3 14,1 9 5 14 8 WNW 1016,6 27 0 0,0
07.12.2018 21:00:00 12,1 10,5 7,4 14,1 6 3 19 10 NW 1017,6 31 0 0,0
07.12.2018 20:00:00 11,2 9,6 8,6 14,1 6 4 18 10 N 1017,7 35 0 0,0
07.12.2018 19:00:00 11,1 9,7 8,9 14,1 8 4 13 7 WSW 1018,3 17 0 0,0
07.12.2018 18:00:00 12,3 10,7 10,3 14,1 7 4 10 6 WNW 1019,5 18 0 0,0
07.12.2018 17:00:00 13,7 11,6 11,5 14,0 5 3 15 8 NW 1019,9 30 6 0,0
07.12.2018 16:00:00 14,8 12,1 13,7 13,9 12 7 18 10 NNE 1019,9 58 36 0,0
07.12.2018 15:00:00 16,1 12,8 16,3 13,7 11 6 18 10 NNE 1020,5 43 58 0,0
07.12.2018 14:00:00 16,1 12,6 17,7 13,6 11 6 16 9 NNE 1020,8 32 55 0,0
07.12.2018 13:00:00 16,0 12,4 20,1 13,6 6 3 11 6 ENE 1021,5 49 44 0,0
07.12.2018 12:00:00 16,2 11,6 17,9 13,5 6 3 11 6 ENE 1022,3 48 53 0,0
07.12.2018 11:00:00 14,5 11,5 14,1 13,5 3 1 10 5 N 1023,3 50 2 0,0
07.12.2018 10:00:00 12,7 9,1 11,4 13,5 8 5 16 8 WNW 1023,5 60 0 0,0
07.12.2018 09:00:00 11,4 8,1 9,9 13,6 10 5 18 10 W 1023,1 60 1 0,0
07.12.2018 08:00:00 10,6 7,7 9,3 13,6 11 6 20 11 W 1022,7 20 0 0,0
07.12.2018 07:00:00 10,7 7,6 9,7 13,7 11 6 18 10 W 1022,5 60 0 0,0
07.12.2018 06:00:00 11,0 7,9 9,9 13,8 11 6 18 10 W 1022,6 60 0 0,0
07.12.2018 05:00:00 11,0 7,9 9,7 13,8 11 6 20 11 W 1022,6 60 0 0,0
07.12.2018 04:00:00 10,7 7,8 9,2 13,9 11 6 20 11 W 1022,8 60 0 0,0
07.12.2018 03:00:00 10,4 7,6 9,0 14,0 12 7 22 12 W 1023,0 59 0 0,0
07.12.2018 02:00:00 10,5 7,7 8,9 14,1 11 6 21 11 W 1022,8 55 0 0,0
07.12.2018 01:00:00 10,8 8,2 9,2 14,1 12 6 20 11 W 1022,8 57 0 0,0
07.12.2018 00:00:00 10,8 8,4 9,4 14,1 11 6 19 10 W 1022,9 56 0 0,0
06.12.2018 23:00:00 11,1 8,8 9,5 14,2 9 5 18 10 W 1022,3 45 0 0,0
06.12.2018 22:00:00 11,5 9,2 10,1 14,2 11 6 18 10 W 1021,8 49 0 0,0
06.12.2018 21:00:00 12,3 9,8 10,9 14,2 9 5 16 8 W 1021,3 42 0 0,0
06.12.2018 20:00:00 13,4 11,3 12,0 14,2 6 4 10 6 W 1021,2 34 0 0,0
06.12.2018 19:00:00 14,4 11,5 12,9 14,1 9 5 20 11 NNW 1020,7 20 0 0,0
06.12.2018 18:00:00 14,7 11,8 13,3 14,1 10 5 18 10 N 1020,2 27 0 0,0
06.12.2018 17:00:00 15,1 12,4 13,9 13,9 7 4 19 11 NW 1019,2 43 0 0,0
06.12.2018 16:00:00 15,8 12,2 14,9 13,8 4 2 10 5 NW 1018,9 53 0 0,0
06.12.2018 15:00:00 16,3 12,1 15,9 13,7 6 4 13 7 NNE 1018,4 56 7 0,0
06.12.2018 14:00:00 16,9 11,0 16,8 13,6 3 2 13 7 ENE 1018,3 19 31 0,0
06.12.2018 13:00:00 18,0 11,1 16,4 13,5 2 1 14 8 N 1019,0 42 23 0,0
06.12.2018 12:00:00 16,3 10,8 16,7 13,5 10 5 14 8 N 1020,1 55 18 0,0
06.12.2018 11:00:00 15,3 11,7 15,3 13,5 4 2 10 5 S 1019,8 50 6 0,0
06.12.2018 10:00:00 13,4 9,8 11,6 13,6 6 3 11 6 W 1020,3 49 4 0,0
06.12.2018 09:00:00 12,0 9,0 10,3 13,6 7 4 18 10 WNW 1020,8 51 2 0,0
06.12.2018 08:00:00 11,3 8,3 9,6 13,7 10 6 20 11 W 1020,4 53 0 0,0
06.12.2018 07:00:00 11,1 8,1 9,5 13,7 11 6 22 12 WNW 1020,5 56 0 0,0
06.12.2018 06:00:00 11,5 8,2 9,4 13,8 11 6 20 11 W 1020,8 58 0 0,0
06.12.2018 05:00:00 11,6 7,5 10,1 13,8 11 6 21 11 W 1021,3 59 0 0,0
06.12.2018 04:00:00 11,6 7,3 10,5 13,9 13 7 18 10 W 1021,6 55 0 0,0
06.12.2018 03:00:00 11,9 7,8 10,8 13,9 11 6 18 10 W 1022,3 55 0 0,0
06.12.2018 02:00:00 11,7 6,8 10,4 14,0 11 6 18 10 W 1022,2 59 0 0,0
06.12.2018 01:00:00 11,4 6,9 10,4 14,1 10 5 17 9 W 1022,8 60 0 0,0
06.12.2018 00:00:00 11,7 7,0 9,4 14,1 10 5 16 9 W 1023,5 60 0 0,0
05.12.2018 23:00:00 11,4 7,1 9,6 14,2 10 5 16 8 W 1023,8 60 0 0,0
05.12.2018 22:00:00 11,6 7,5 9,7 14,3 9 5 15 8 W 1023,8 60 0 0,0
05.12.2018 21:00:00 11,7 7,6 9,8 14,3 9 5 14 8 W 1023,8 60 0 0,0
05.12.2018 20:00:00 12,1 8,4 10,2 14,3 10 5 16 9 W 1024,0 59 0 0,0
05.12.2018 19:00:00 12,6 8,5 10,5 14,3 9 5 15 8 W 1023,6 60 0 0,0
05.12.2018 18:00:00 12,8 9,1 11,2 14,2 8 5 14 8 W 1023,6 60 0 0,0
05.12.2018 17:00:00 13,8 11,0 11,1 14,2 8 4 14 7 W 1023,5 46 8 0,0
05.12.2018 16:00:00 16,9 12,8 15,2 14,0 2 1 10 6 SSE 1023,5 48 60 0,0
05.12.2018 15:00:00 17,1 12,6 18,4 13,9 8 4 13 7 SSE 1023,3 40 60 0,0
05.12.2018 14:00:00 17,4 12,1 24,1 13,7 9 5 12 6 SSE 1023,6 19 60 0,0
05.12.2018 13:00:00 17,8 11,8 25,8 13,6 5 3 11 6 SE 1023,8 45 60 0,0
05.12.2018 12:00:00 17,7 11,5 24,0 13,5 7 4 12 7 ESE 1024,1 20 60 0,0
05.12.2018 11:00:00 17,8 10,4 20,7 13,5 4 2 10 5 SE 1024,4 50 60 0,0
05.12.2018 10:00:00 16,3 8,3 13,0 13,5 3 2 15 8 WSW 1023,9 52 60 0,0
05.12.2018 09:00:00 12,7 4,9 9,5 13,6 9 5 17 9 W 1023,7 47 60 0,0
05.12.2018 08:00:00 10,5 4,0 8,2 13,7 11 6 18 10 W 1023,4 60 16 0,0
05.12.2018 07:00:00 10,2 3,9 8,3 13,8 10 6 18 10 W 1022,8 60 0 0,0
05.12.2018 06:00:00 10,4 3,7 8,1 13,9 11 6 18 10 W 1022,5 60 0 0,0
05.12.2018 05:00:00 10,3 4,2 7,8 14,0 10 6 16 8 W 1022,0 60 0 0,0
05.12.2018 04:00:00 10,3 4,9 8,0 14,1 12 6 19 10 W 1021,5 60 0 0,0
05.12.2018 03:00:00 11,1 4,8 6,0 14,2 10 6 18 10 WNW 1021,3 60 0 0,0
05.12.2018 02:00:00 11,5 5,1 9,0 14,3 11 6 18 10 W 1020,6 60 0 0,0
05.12.2018 01:00:00 11,9 5,3 9,6 14,4 9 5 19 10 W 1020,4 60 0 0,0
05.12.2018 00:00:00 12,0 5,4 9,2 14,4 6 3 18 10 WSW 1020,6 60 0 0,0
04.12.2018 23:00:00 11,8 6,5 7,9 14,5 10 5 15 8 W 1020,1 60 0 0,0
04.12.2018 22:00:00 12,3 6,6 10,0 14,5 10 5 17 9 W 1019,4 60 0 0,0
04.12.2018 21:00:00 12,6 7,7 10,4 14,6 11 6 18 10 W 1018,7 60 0 0,0
04.12.2018 20:00:00 12,8 9,4 10,8 14,6 6 4 14 7 W 1018,2 59 0 0,0
04.12.2018 19:00:00 14,5 10,9 12,4 14,6 8 5 17 9 W 1016,8 60 0 0,0
04.12.2018 18:00:00 14,1 12,1 12,6 14,5 8 4 12 7 W 1016,7 32 0 0,0
04.12.2018 17:00:00 15,9 13,4 13,8 14,4 4 2 8 4 WNW 1016,2 30 8 0,0

tt = Température de l'air
td = dewpoint
tt 5cm = Température de l'air 5cm
tt -20cm = Température de l'air -20cm
ff = Vitesse du vent
fx = gusts
dd = Direction du vent
ppp = reduced air pressure
vv = visibility
sd = Ensoleillement
rr = Quantités de précipitations

stations d'obs. à proximité